Wind_Speed
4 5 7 9 12 14 15 16 16 15 14 14 13 13 12 12 12 11 10 9 8 8 8 8 9 9 9 10 10 9 8 9 9 8 9 9 8 7 6 5 4 3 2 2 4 5 6 7 8 8 8 8 8 9 9 9 7 6 6 6 6 6 6 6 6 5 5 5 5 6 6 6 6 6 7 7 7 8 8 9 9 9 9 10 10
3 4 6 8 10 12 14 15 15 14 14 14 14 14 13 13 12 11 10 10 8 8 7 7 8 9 9 9 9 9 8 7 9 9 9 9 8 7 6 5 3 1 1 3 5 7 7 8 8 8 8 7 8 9 9 9 8 7 7 7 7 7 7 7 7 7 7 7 7 7 8 7 7 8 7 7 7 8 8 9 9 9 9 9 10
4 6 7 8 10 12 14 15 15 16 16 16 16 15 14 13 12 11 10 10 9 9 8 7 8 9 9 9 9 9 8 7 8 10 9 8 7 6 5 3 2 0 2 4 6 8 8 8 8 7 7 7 8 8 9 9 9 8 8 7 7 7 8 8 8 8 8 9 9 9 9 9 9 9 9 9 8 8 8 9 10 11 11 11 10
6 7 8 9 9 10 12 14 16 17 16 16 15 14 14 14 13 12 11 11 10 10 9 8 8 8 9 9 9 10 10 8 8 10 10 9 8 6 4 3 1 2 4 6 7 8 8 7 7 6 6 7 8 8 9 9 9 9 9 9 9 9 9 9 9 9 9 9 10 10 10 10 9 9 10 11 11 10 10 9 10 12 13 14 13
8 8 8 9 9 9 11 13 15 15 15 15 14 14 14 14 14 13 12 11 10 10 9 9 9 9 9 9 9 10 10 9 8 9 9 9 7 6 4 3 2 3 5 6 7 7 7 6 6 6 6 6 7 8 9 9 10 10 10 11 11 11 10 10 10 10 10 10 10 10 10 10 10 10 10 11 12 12 12 12 12 12 13 15 15
7 9 9 9 9 10 10 10 10 11 12 13 14 14 15 14 13 12 11 10 10 9 9 10 10 9 9 10 10 10 10 10 9 8 8 8 6 5 4 4 4 4 5 7 7 6 6 6 6 5 6 7 7 8 8 9 10 10 11 11 11 11 11 11 11 11 11 11 11 11 12 12 12 11 11 11 11 12 13 14 14 15 15 15 16
8 9 10 9 9 10 9 9 9 10 11 12 13 13 13 12 11 11 11 11 10 10 9 10 10 10 10 10 10 10 10 10 9 8 7 7 6 5 5 5 5 6 6 7 7 6 6 6 7 6 6 7 7 7 8 9 10 11 11 12 12 12 13 13 14 14 14 14 14 14 14 14 13 13 13 12 11 12 13 15 17 18 18 18 18
8 9 10 10 10 10 10 10 11 11 11 11 11 11 11 11 11 11 10 10 10 10 10 10 10 10 10 9 10 10 10 10 9 8 7 7 7 6 6 6 6 7 7 8 7 7 7 7 7 7 7 7 7 7 8 9 10 11 12 13 13 14 14 15 16 17 17 17 17 17 16 16 15 15 15 14 14 13 14 16 18 19 20 21 21
10 10 10 11 11 12 12 12 12 12 10 9 10 11 11 12 11 10 9 8 9 10 11 11 10 10 9 9 10 10 10 10 10 9 8 8 7 7 7 8 8 8 9 9 8 8 8 8 8 8 7 7 7 7 8 9 10 11 12 13 14 14 15 17 18 19 19 19 19 18 18 17 17 16 16 16 15 15 15 16 17 19 20 21 22
12 11 11 12 13 13 14 13 12 11 10 10 12 12 12 11 11 10 9 9 8 8 10 10 10 9 9 10 11 10 10 10 10 10 9 9 8 8 9 9 9 10 11 10 8 8 8 8 8 8 8 7 7 7 8 9 10 11 12 13 14 15 16 17 18 18 18 18 18 18 17 17 17 16 15 15 15 15 15 15 16 16 17 19 21
14 12 12 13 14 15 14 13 12 12 12 13 13 13 13 12 11 11 11 10 9 8 8 9 9 9 9 10 10 10 10 10 10 11 10 10 10 9 10 10 11 12 12 11 9 9 8 8 8 8 8 8 8 8 9 10 11 12 13 14 15 16 17 17 17 17 17 16 16 16 17 17 16 16 15 14 14 15 16 16 16 16 16 16 17
16 15 13 14 15 15 13 12 13 13 13 13 14 14 14 14 13 13 13 12 12 11 10 10 9 10 10 10 10 10 10 10 11 12 11 11 11 10 11 12 12 12 12 11 9 9 9 9 8 7 7 7 8 9 10 11 12 13 14 15 17 18 18 18 17 16 16 15 16 16 17 17 17 17 17 16 15 15 16 16 16 16 15 15 15
16 16 16 16 17 16 14 14 14 14 14 15 16 16 16 15 15 15 15 15 15 14 13 12 11 11 12 12 12 11 11 11 12 12 13 13 12 11 12 13 13 13 12 11 9 9 9 9 8 7 7 7 9 9 10 11 13 14 15 16 17 17 18 18 17 16 16 15 16 16 18 18 19 19 19 18 17 16 17 17 17 16 15 15 15
16 17 19 20 19 18 17 17 17 16 16 17 18 18 18 18 17 17 17 17 17 16 15 15 14 14 14 14 14 12 12 13 13 13 13 13 12 13 13 13 13 13 12 11 9 9 9 9 8 7 7 8 9 9 10 12 13 14 14 15 16 16 17 18 18 19 19 18 18 18 19 20 20 20 20 19 18 18 18 19 19 18 17 17 17
16 18 20 22 22 21 20 20 20 18 18 20 20 19 19 19 18 18 18 18 18 17 17 17 17 17 17 16 16 15 14 14 15 14 14 14 14 14 15 15 14 13 13 11 10 10 10 8 8 7 7 8 9 9 11 13 14 14 14 15 16 17 18 20 21 22 23 23 23 22 22 22 21 21 20 19 18 18 19 21 22 21 20 19 19
15 18 20 22 24 23 21 22 22 20 19 20 20 20 19 19 18 18 18 18 17 17 17 18 19 19 19 18 18 17 16 16 16 16 16 16 16 16 16 16 15 14 13 11 11 11 10 9 8 8 7 8 8 9 11 13 14 15 16 17 18 19 21 22 23 24 25 25 25 24 24 24 23 22 21 18 17 18 20 22 23 24 23 21 21
15 17 19 21 23 23 21 21 22 21 20 19 19 20 19 19 18 18 17 15 15 16 17 19 20 21 20 20 20 19 18 18 18 19 19 18 18 18 18 17 16 15 14 13 13 12 11 9 9 8 8 7 7 9 11 13 14 15 17 18 19 21 22 23 24 24 25 25 24 25 25 25 25 24 22 19 18 19 20 22 24 26 27 25 24
13 15 18 20 22 23 21 21 21 20 19 18 19 21 20 19 18 16 14 14 14 15 15 17 19 20 22 22 22 22 21 21 21 22 21 20 20 20 20 19 18 17 15 14 14 13 11 10 9 8 8 7 7 9 11 12 14 16 17 18 20 20 21 21 22 22 23 23 23 23 24 25 25 25 24 22 21 21 22 24 25 27 28 28 28
10 11 16 20 22 23 22 21 21 20 19 19 21 23 22 20 17 14 14 14 14 14 14 15 16 18 21 22 23 24 24 23 24 24 22 21 22 22 22 22 20 18 16 15 15 14 13 11 10 9 8 8 8 9 11 13 14 15 16 18 18 19 19 19 19 20 20 21 21 22 23 24 25 25 24 24 23 24 25 27 28 29 29 30 30
7 8 13 18 22 23 22 22 21 20 20 21 23 24 23 20 17 15 15 15 14 14 14 14 15 16 19 21 23 24 25 25 25 25 23 23 24 24 24 24 22 20 18 17 16 16 14 12 10 9 9 8 8 10 11 13 13 14 15 16 17 17 17 17 18 19 19 21 22 22 22 23 24 23 23 23 24 25 27 28 29 30 30 30 30
7 6 10 16 22 22 21 22 23 22 22 23 24 25 23 20 18 17 17 16 15 15 15 14 14 15 17 19 22 24 25 26 26 26 25 25 26 25 26 27 24 21 19 18 18 17 15 12 10 10 10 9 9 11 12 12 11 12 14 16 16 17 17 18 19 20 21 22 23 24 24 24 24 23 22 22 22 24 26 27 29 30 30 29 29
9 8 10 15 21 23 22 23 24 25 24 25 25 25 24 21 19 19 18 17 15 15 15 15 15 15 16 18 21 23 25 26 26 27 26 27 27 26 27 28 26 22 20 19 19 18 15 13 11 11 11 10 10 11 11 10 10 12 14 16 17 18 19 20 22 23 24 25 26 27 27 26 26 26 25 23 23 25 27 28 29 30 29 28 27
12 11 12 16 20 23 23 24 25 25 25 25 26 26 23 20 20 20 19 17 16 15 15 15 14 14 15 17 19 21 24 26 27 28 28 28 28 28 28 28 27 24 21 20 21 19 16 14 13 12 11 11 11 11 10 10 11 13 15 17 19 20 22 23 24 25 26 27 28 29 29 29 28 28 28 27 27 28 29 31 32 31 30 29 27
14 13 14 17 19 22 25 25 26 25 24 25 26 24 22 21 22 21 20 18 17 17 16 15 14 14 15 16 16 18 21 23 26 27 28 29 29 28 28 28 28 25 22 22 22 19 17 15 14 13 12 12 12 11 10 10 12 14 16 18 20 23 25 27 28 29 29 30 30 31 31 30 29 29 29 29 29 30 31 32 33 33 32 31 30
16 16 16 18 19 21 24 26 25 23 22 23 23 23 22 23 22 21 21 21 20 18 17 16 15 15 16 15 15 16 17 19 23 25 27 29 29 28 27 28 28 25 22 23 22 19 17 16 15 14 13 13 12 10 10 12 13 15 18 20 22 24 27 28 29 30 30 30 31 32 32 31 29 29 29 29 29 30 31 32 33 33 32 32 32
18 18 18 18 20 22 24 25 24 22 21 21 21 22 22 21 21 21 22 22 21 20 19 18 16 16 16 16 15 14 14 15 19 22 25 28 28 27 27 29 29 25 23 23 22 19 17 17 16 15 13 12 11 10 11 13 14 17 19 22 24 25 27 27 28 28 28 28 30 30 30 30 29 28 29 29 29 30 31 32 32 32 33 32 32
20 21 20 19 21 23 24 25 25 24 23 22 21 21 20 19 20 21 22 21 21 22 21 19 18 16 16 16 15 14 13 13 16 21 25 27 27 27 27 29 29 26 24 24 21 19 19 18 16 15 13 12 10 10 11 13 15 18 20 23 25 25 26 26 26 26 26 28 30 30 30 30 29 28 28 29 29 29 30 31 31 31 31 32 32
22 23 23 22 23 24 25 26 27 27 26 24 23 23 21 19 20 22 23 22 22 23 22 20 19 17 16 16 17 16 14 14 16 21 26 28 28 28 28 30 31 27 24 24 22 21 21 19 16 14 13 11 10 10 12 14 16 19 21 23 25 26 27 27 26 27 28 30 32 34 33 32 30 29 28 29 28 28 28 28 29 30 30 31 32
25 25 26 26 24 24 25 28 30 31 30 27 25 25 24 22 21 22 23 22 23 25 25 22 19 16 15 16 18 19 18 17 17 20 25 27 29 29 29 31 32 28 24 24 24 23 21 18 15 14 13 11 10 11 12 15 17 19 22 24 25 26 27 27 27 28 30 32 34 36 36 34 31 30 29 29 29 28 27 27 27 29 30 31 33
27 26 27 28 26 24 24 29 34 34 32 30 27 27 26 24 23 22 21 22 24 26 26 24 19 15 16 18 19 20 21 21 20 20 23 26 29 30 31 32 32 28 26 26 25 23 20 17 16 15 14 12 11 12 14 16 18 19 22 24 24 25 26 27 28 28 30 33 34 35 35 34 33 31 29 29 29 29 28 28 28 29 31 32 34
30 29 28 28 28 25 23 27 34 36 35 34 31 29 29 28 26 23 21 21 23 25 26 25 21 18 20 20 19 20 21 23 24 24 24 25 28 31 32 33 32 30 27 27 25 21 19 17 17 16 14 13 12 13 14 17 19 21 23 23 23 24 25 27 29 29 30 33 34 34 34 33 33 31 29 29 30 30 30 30 30 31 32 34 36
29 26 25 25 26 26 24 25 29 32 35 38 37 33 32 31 28 24 22 22 22 23 24 25 23 23 23 23 22 22 21 22 24 26 27 27 28 31 33 34 33 30 28 27 24 21 19 18 18 16 14 13 13 13 15 18 21 22 22 22 22 24 26 28 30 32 33 34 35 35 34 34 33 32 31 32 32 31 31 30 31 32 33 36 38
26 24 23 23 24 27 28 27 27 28 29 33 37 36 33 31 28 26 25 25 23 23 24 25 26 27 26 25 25 25 23 22 23 25 28 30 30 31 32 34 34 31 29 27 24 21 20 19 18 17 16 15 15 15 16 19 20 20 21 22 23 25 27 29 32 34 35 36 35 35 36 35 34 33 33 34 34 32 32 31 32 34 36 38 40
31 29 28 26 25 26 28 29 28 26 24 26 31 33 32 31 29 29 29 27 26 26 25 26 28 30 30 29 28 29 27 25 25 27 28 30 31 31 31 33 34 32 30 27 24 22 21 20 19 19 19 18 17 16 18 19 19 20 21 23 24 27 29 31 33 34 34 34 34 34 36 36 35 34 34 34 33 33 32 33 34 36 38 39 41
36 35 33 30 29 28 28 28 27 25 26 27 28 31 32 32 31 31 31 30 29 28 27 27 28 30 32 32 31 30 30 29 29 29 30 30 30 31 32 33 33 33 30 28 25 23 22 22 22 22 21 19 17 17 18 19 19 20 22 24 26 28 30 32 33 33 32 32 33 34 37 37 35 33 33 33 33 33 34 35 37 38 39 41 42
38 36 35 34 33 33 32 31 29 29 30 31 31 31 32 33 34 34 33 32 31 30 29 30 30 31 32 33 32 32 32 33 33 32 31 30 30 31 32 33 33 33 32 30 27 25 24 25 24 23 22 19 16 17 19 19 19 21 23 25 27 29 31 32 33 32 32 33 34 35 37 37 35 33 32 32 32 34 36 37 38 39 40 42 43
39 38 38 37 36 36 35 34 34 34 34 34 34 34 34 35 37 37 35 34 34 34 34 34 33 33 33 35 35 34 33 34 35 35 33 32 31 31 33 34 34 34 34 32 29 27 27 27 26 24 22 18 17 18 19 19 20 22 24 26 28 30 32 32 31 32 32 33 34 35 37 36 35 34 34 33 33 35 36 38 39 40 41 43 44
43 41 40 40 39 39 38 38 37 37 37 35 35 35 36 38 40 39 38 38 38 38 38 37 35 34 35 36 36 36 34 35 37 36 35 34 32 31 32 34 34 34 34 33 31 29 30 29 27 25 22 19 18 19 19 20 21 23 25 27 28 30 31 31 32 32 32 33 34 36 38 37 36 35 35 34 35 36 37 39 40 41 42 44 46
46 45 43 43 42 42 42 42 41 41 40 38 37 37 38 39 42 43 43 41 39 39 40 39 37 36 35 34 36 37 37 37 37 37 36 36 35 32 32 34 35 34 34 35 34 33 33 31 29 26 23 21 19 20 20 21 22 24 26 28 29 30 31 32 33 32 33 34 35 36 37 37 36 36 36 36 36 38 39 40 41 42 44 45 47
48 47 47 46 46 45 45 44 44 44 43 42 42 42 43 44 45 46 46 43 41 41 44 43 42 41 37 34 35 38 38 38 38 38 37 38 37 34 34 35 35 35 36 38 37 35 34 33 30 27 24 21 21 21 22 23 23 25 27 29 30 31 31 33 33 33 33 34 35 36 37 37 36 36 36 36 37 38 40 41 42 43 44 46 47
51 50 50 49 48 47 46 45 44 43 43 43 42 43 45 45 46 47 48 46 43 43 46 46 46 45 42 37 36 38 39 40 40 39 39 40 40 37 36 36 37 37 39 39 38 37 36 34 31 28 25 23 22 23 23 24 25 27 29 30 31 31 32 33 34 34 34 35 35 36 37 37 36 35 36 36 37 39 40 41 42 43 45 46 47
53 53 52 52 49 47 47 47 44 43 43 43 44 44 45 45 46 47 47 46 44 44 46 46 45 45 44 40 38 39 40 42 43 42 41 42 42 41 39 39 39 39 40 40 39 39 38 35 33 30 27 25 25 25 25 25 26 28 30 31 32 32 32 34 35 35 35 36 36 36 37 37 36 36 36 37 38 39 40 42 43 44 45 46 47
53 54 53 53 52 51 51 51 49 48 47 47 47 47 47 47 48 47 47 47 47 46 47 47 47 47 47 45 41 41 42 43 44 45 44 43 43 44 42 41 41 42 42 42 41 41 40 38 36 34 31 29 29 28 26 26 27 29 30 32 33 33 33 34 35 36 37 37 37 37 38 37 36 36 36 37 38 40 41 42 44 44 45 45 46
53 55 56 55 54 54 54 55 54 53 53 52 52 51 51 51 51 50 50 51 51 50 50 51 52 52 52 50 46 44 45 45 45 45 45 45 45 46 46 44 44 45 44 44 44 45 44 42 40 39 36 34 33 30 25 24 27 29 31 33 34 34 34 35 36 37 39 39 39 39 39 38 37 37 37 38 39 40 41 43 43 43 44 44 45
47 50 53 54 54 54 55 55 55 55 55 55 54 54 55 54 54 54 54 54 54 53 53 54 54 55 55 55 54 53 51 48 46 45 47 48 49 49 50 49 48 47 47 47 47 48 48 47 46 46 44 39 34 29 25 25 27 30 32 35 36 35 35 35 37 39 40 40 41 41 40 38 38 37 37 38 39 40 41 42 42 42 43 43 43
42 42 44 47 48 49 50 51 52 52 53 53 54 54 54 53 54 56 57 57 57 56 56 56 55 56 57 58 60 61 60 57 53 49 50 52 52 52 53 53 51 50 49 49 48 50 52 50 49 51 53 47 36 28 25 26 27 30 34 36 35 35 35 36 38 40 41 42 43 42 41 39 38 38 38 38 39 40 41 41 41 41 41 41 41
43 43 43 43 44 45 46 46 47 49 51 52 52 52 52 53 54 55 57 58 58 59 60 61 60 60 61 61 62 63 64 63 61 58 55 55 56 56 56 56 56 53 51 51 51 54 55 53 51 54 59 57 46 32 26 27 29 32 35 35 35 35 36 37 39 41 42 43 44 43 41 39 38 38 38 39 39 40 40 39 39 39 39 39 40
46 47 47 47 47 47 48 47 47 48 49 51 51 50 50 51 52 54 55 57 59 60 62 63 64 64 64 64 63 64 64 64 66 66 63 60 58 58 58 58 58 57 57 57 57 58 59 56 55 57 60 59 51 37 28 29 31 33 35 36 36 36 36 38 39 41 42 43 43 42 39 38 38 38 38 39 39 38 38 38 38 38 38 38 39
49 50 50 50 49 49 49 49 49 49 49 50 50 49 50 50 51 52 53 55 57 59 60 62 62 62 62 61 61 62 63 63 64 67 69 67 63 61 60 60 61 62 65 65 64 64 63 60 60 62 60 56 52 43 34 32 33 34 36 38 38 36 36 38 39 40 42 43 41 39 37 38 38 38 38 37 37 37 37 37 36 37 37 38 38
53 54 53 53 53 53 53 53 52 52 53 52 52 52 52 51 51 52 53 54 56 58 59 59 59 59 59 61 62 62 62 62 61 62 66 67 66 65 64 65 66 67 69 71 71 69 66 64 65 65 61 56 52 45 37 34 35 37 39 41 39 36 36 38 39 40 42 42 39 36 36 37 37 37 37 36 36 36 36 35 35 36 36 37 37
57 58 57 55 55 56 57 57 57 57 57 57 58 57 55 53 52 52 54 55 55 57 59 60 61 62 63 64 66 66 66 65 63 61 62 65 68 69 69 71 72 69 66 67 71 70 67 65 67 66 60 54 50 44 38 36 37 40 42 42 38 35 37 39 39 40 41 40 37 35 36 36 36 36 35 35 35 35 34 35 35 35 35 36 35
Wind_Direction
202 196 204 198 193 193 190 189 190 191 191 190 188 184 178 174 172 170 169 171 170 168 168 170 171 174 178 179 181 182 175 167 164 162 155 147 145 142 139 133 121 102 63 12 344 338 335 332 325 323 328 334 337 336 336 336 334 339 343 343 342 337 334 328 322 323 319 312 307 308 310 315 321 315 315 324 332 334 331 331 334 338 339 336 334
186 194 204 199 194 195 193 188 188 193 194 193 193 191 185 180 179 176 175 180 181 181 181 178 178 180 183 184 184 187 187 174 162 161 159 153 153 151 148 144 132 118 354 331 327 330 331 327 324 328 337 341 343 343 343 345 346 348 347 346 343 340 337 332 327 323 318 314 314 314 313 315 313 309 309 314 320 321 318 321 325 325 323 322 325
207 202 201 199 195 193 194 189 187 192 196 196 195 192 188 185 184 184 185 188 190 191 193 191 188 187 189 188 186 188 194 188 167 164 168 165 164 163 159 161 159 210 314 323 328 331 329 327 330 337 342 345 348 351 355 359 1 1 358 353 349 346 344 339 335 331 326 324 323 322 321 319 312 308 310 312 310 307 307 312 314 314 313 314 320
227 216 201 198 199 194 193 193 192 194 195 197 197 192 190 189 188 191 195 195 195 198 198 198 199 196 196 193 189 190 195 197 180 171 176 178 177 177 178 186 224 297 317 324 328 327 322 323 330 336 340 346 351 356 3 7 10 10 8 3 359 357 353 347 343 339 335 331 327 325 322 316 314 313 314 313 311 307 305 306 306 309 313 316 320
234 232 220 202 201 203 201 200 200 198 196 197 199 198 198 196 193 196 201 202 201 203 202 203 206 204 201 197 196 196 197 200 195 183 184 187 186 189 200 219 260 295 311 318 319 315 312 317 323 330 337 343 351 358 3 8 11 11 10 7 4 360 355 349 345 342 339 336 331 326 322 320 320 321 318 314 312 310 309 310 310 311 313 315 315
237 234 231 213 204 211 213 211 207 202 201 202 201 203 205 204 202 200 203 208 211 211 208 209 213 211 208 205 203 202 201 202 203 199 196 197 200 203 216 238 264 285 299 307 309 305 304 310 315 322 331 337 346 354 358 2 4 2 359 358 355 350 345 341 337 335 333 330 327 325 324 326 327 326 322 316 313 312 312 314 315 315 314 310 307
239 230 228 219 207 210 217 216 209 203 205 207 207 209 212 212 211 207 203 205 212 216 214 214 218 218 216 213 210 209 208 207 209 212 209 207 214 221 230 245 262 277 291 300 302 299 299 305 310 316 326 333 340 344 347 351 351 349 346 344 342 339 336 332 330 329 326 323 321 321 322 324 325 323 321 318 316 314 313 314 315 314 311 307 304
238 226 223 216 203 200 207 212 211 208 207 208 211 215 219 220 219 218 215 208 208 212 215 217 218 220 222 221 219 217 216 214 216 220 219 217 223 232 241 251 262 275 285 293 295 293 296 301 306 313 322 330 335 337 339 342 341 338 335 333 334 334 331 328 326 323 320 318 316 316 316 317 317 316 317 318 320 318 314 310 308 307 305 303 302
239 224 221 218 207 198 198 205 212 214 212 212 216 218 221 225 227 230 231 226 216 209 211 217 219 218 221 225 226 226 223 222 223 226 225 224 229 237 246 255 264 273 280 286 288 287 291 296 301 308 317 324 330 332 333 334 333 330 327 328 329 328 326 325 324 320 315 312 311 312 314 315 313 311 313 318 321 320 315 309 303 301 300 299 299
245 231 224 221 219 211 202 201 207 213 214 214 216 218 222 227 232 234 232 232 230 219 212 216 222 219 218 225 231 231 227 227 228 229 229 230 233 240 249 257 265 272 278 281 282 282 284 289 295 304 312 319 324 326 328 328 327 325 325 326 324 321 322 326 326 323 319 312 309 311 315 317 316 315 316 319 321 319 318 315 310 304 300 298 299
252 242 229 223 226 226 218 209 207 210 213 216 216 216 219 221 225 230 232 234 235 233 225 222 227 229 227 230 234 234 230 229 231 231 231 232 235 241 249 257 265 271 276 278 275 275 279 285 293 301 307 314 318 320 324 325 325 325 324 322 319 317 320 325 327 330 330 325 319 317 317 318 320 321 322 321 319 317 318 319 318 312 306 304 308
252 248 237 230 231 233 229 224 220 218 216 219 221 219 218 217 218 223 231 237 238 237 236 231 229 233 239 242 241 241 237 232 233 235 235 236 238 243 250 258 265 271 275 274 271 271 275 283 290 296 302 308 311 314 319 322 323 322 320 320 317 315 317 321 326 331 334 333 330 326 323 323 324 324 324 322 318 316 317 320 321 318 314 315 319
246 251 248 241 238 237 233 231 232 231 228 227 227 227 226 225 225 226 229 235 238 238 239 237 234 232 237 244 245 247 246 241 239 237 239 241 241 243 250 258 264 271 275 274 269 267 270 279 285 289 295 300 302 307 314 318 319 317 318 318 315 313 315 319 324 329 332 332 331 328 327 326 327 327 325 322 320 318 319 322 324 323 322 323 324
233 243 251 250 246 243 240 240 239 239 240 240 238 236 236 236 237 238 238 239 241 242 243 243 241 238 236 241 245 246 248 248 246 241 241 244 244 245 251 258 263 270 276 275 268 262 266 273 277 281 288 293 296 303 310 314 315 316 318 317 315 315 317 320 324 328 331 332 331 329 327 326 327 328 327 323 321 321 323 325 325 328 329 326 323
232 236 243 249 250 247 245 247 247 244 244 247 248 246 246 246 247 247 246 245 245 245 246 246 245 243 239 239 242 242 243 247 249 247 246 246 246 247 252 258 263 269 275 274 261 256 261 265 268 272 280 287 293 301 309 313 315 318 320 319 319 320 321 323 326 328 330 330 330 329 327 327 327 328 327 324 321 321 324 325 327 329 332 331 326
242 240 238 241 247 249 247 248 252 250 248 251 255 254 253 253 254 253 251 248 248 248 249 249 248 247 245 242 243 243 242 243 247 249 249 248 249 251 254 258 263 268 273 268 256 253 256 256 260 266 274 283 291 301 308 313 315 317 319 319 320 322 323 325 326 328 328 327 327 326 326 326 325 326 326 322 318 319 321 324 326 328 330 333 332
249 245 239 236 242 248 248 247 252 254 252 255 258 257 255 254 256 257 255 253 254 255 255 254 252 251 250 247 246 246 245 243 243 244 246 250 253 254 256 260 262 264 268 263 253 250 250 249 254 263 272 281 290 301 307 310 312 314 317 319 321 324 325 326 327 326 326 326 326 325 324 323 322 322 322 319 315 315 316 319 321 323 325 329 331
248 245 240 235 237 243 245 246 250 253 253 253 253 254 253 255 259 261 262 262 262 262 262 260 258 255 253 250 248 247 245 242 241 242 245 250 253 255 258 259 258 260 263 259 250 246 244 244 250 260 270 277 286 296 301 304 307 312 318 321 324 326 328 329 329 327 327 327 327 325 324 322 320 318 318 316 313 312 312 313 315 317 319 322 324
239 244 242 237 236 240 244 247 248 248 250 248 247 251 254 257 261 262 263 265 267 270 270 267 263 258 255 251 249 248 246 243 241 241 243 247 251 254 257 257 256 258 260 254 246 242 238 239 246 257 265 273 283 290 294 300 306 314 321 323 325 329 331 332 331 331 332 332 332 331 328 326 322 318 316 314 311 310 310 312 313 313 314 316 318
228 246 245 238 237 241 242 243 243 243 245 245 245 251 256 259 259 257 260 265 270 275 275 272 268 261 255 251 248 249 248 246 244 242 242 244 248 252 255 257 256 255 256 251 242 238 235 235 241 250 257 267 278 284 289 297 307 317 322 323 326 328 330 332 333 334 336 336 335 336 336 334 330 323 318 314 311 309 308 308 309 309 311 312 314
224 253 258 241 235 238 237 235 238 237 236 238 242 247 251 253 254 255 259 265 272 277 278 277 272 265 259 253 248 246 246 246 245 243 242 243 246 250 253 256 255 253 253 246 238 235 233 232 236 243 251 261 270 277 285 295 307 318 322 322 323 324 326 328 330 332 332 333 333 333 335 337 336 331 323 316 311 308 306 306 306 307 308 310 312
232 253 269 252 237 235 236 233 234 235 235 237 241 244 246 247 250 253 258 265 273 280 280 278 275 269 263 256 251 246 245 245 244 243 241 242 245 248 250 254 253 252 249 239 232 232 231 230 231 238 248 256 264 273 281 291 306 318 321 320 319 320 322 325 326 327 328 328 329 328 329 332 334 332 327 320 314 310 309 310 311 311 309 307 310
245 250 263 262 246 237 236 235 233 233 236 239 241 244 244 242 243 250 257 265 272 276 276 277 278 274 265 258 255 252 249 247 245 243 242 242 244 245 248 250 249 249 245 235 228 227 227 227 229 235 246 254 262 269 276 290 308 317 318 316 316 318 321 323 324 325 325 325 325 324 323 326 328 328 325 322 319 315 314 314 315 315 312 310 311
251 250 253 259 253 241 235 235 234 233 235 239 241 240 237 234 238 247 255 262 266 267 270 275 277 275 271 266 262 258 254 251 247 243 241 241 242 243 245 246 246 247 242 233 228 225 223 223 227 235 244 253 260 265 276 295 310 314 313 313 316 319 322 323 322 322 323 323 323 322 320 320 322 322 321 321 320 320 318 316 315 315 314 313 313
247 245 243 249 250 242 236 233 232 234 236 238 236 233 231 234 241 248 254 257 260 262 266 271 274 276 276 272 267 264 262 257 249 242 237 237 238 239 241 243 244 245 239 231 229 225 220 220 226 234 242 250 258 266 282 300 308 310 312 316 319 321 322 323 322 320 321 322 323 322 321 319 318 319 319 319 320 321 320 317 315 314 313 313 313
237 236 235 242 245 240 235 230 227 228 233 235 233 230 232 237 242 246 248 252 256 260 263 268 272 277 278 273 268 267 268 261 250 237 230 230 232 233 236 241 244 243 235 230 228 224 220 221 226 233 240 249 257 270 286 299 304 308 314 318 319 321 323 324 324 322 323 324 324 325 323 320 319 319 319 318 319 320 319 316 314 312 312 313 312
230 233 235 239 242 239 236 231 227 227 230 232 232 233 235 238 242 244 246 249 254 258 263 267 271 277 279 273 266 263 265 262 249 232 224 224 227 229 234 240 244 241 233 229 228 224 223 225 228 233 240 249 259 273 287 296 302 309 315 316 317 320 324 326 325 323 324 326 327 326 324 320 319 321 320 318 318 318 318 315 312 311 311 311 311
222 230 238 241 239 238 239 237 233 231 230 230 232 235 236 237 240 243 246 248 251 258 265 268 270 277 282 275 263 256 256 255 247 235 229 227 228 229 232 238 243 240 232 229 227 224 225 227 229 234 241 249 259 273 285 292 300 309 313 314 316 320 323 324 324 324 326 327 327 327 324 320 318 318 317 316 315 315 315 312 310 309 310 309 308
218 219 231 240 239 238 239 238 237 234 230 229 233 236 237 237 239 243 247 248 249 254 262 266 269 278 286 277 263 254 252 251 248 243 240 239 237 233 232 236 242 240 232 229 228 226 228 230 231 236 243 249 259 271 282 289 298 307 311 313 316 318 321 324 326 326 326 327 327 326 323 319 316 314 313 312 312 313 313 311 309 308 308 308 308
227 227 233 242 243 240 237 236 237 236 231 230 234 239 240 239 241 246 252 253 252 253 259 265 269 275 279 276 266 258 254 253 252 251 249 248 246 241 236 237 240 239 233 231 230 229 230 231 232 236 240 246 257 269 279 288 297 305 309 311 315 320 324 327 329 329 328 325 323 324 323 319 316 315 312 310 310 313 314 313 311 310 309 308 308
232 238 242 247 248 246 244 239 238 237 233 233 237 242 243 243 243 246 251 255 255 253 256 262 267 269 270 271 271 267 262 259 257 256 255 253 252 248 242 239 239 237 233 232 233 232 232 232 232 235 238 246 257 268 280 290 297 301 305 309 316 324 328 330 330 330 329 323 320 322 325 321 318 318 314 311 312 314 315 314 312 310 308 308 308
232 239 243 247 251 256 257 248 239 236 234 234 237 240 242 245 247 249 253 256 256 255 257 261 266 267 266 268 271 273 272 269 265 262 259 256 254 251 246 242 240 238 233 232 234 233 232 233 233 236 242 250 259 269 281 287 291 297 303 310 320 326 329 330 329 328 327 323 320 323 325 323 321 320 317 314 315 315 314 312 310 308 308 308 309
233 239 245 250 255 259 259 251 242 239 238 238 240 241 242 246 250 252 253 254 257 261 263 265 267 267 267 267 270 272 275 277 276 270 263 258 255 253 250 246 242 239 235 233 232 231 231 232 234 239 245 250 258 268 277 281 288 297 305 313 321 326 328 329 328 327 327 324 323 323 323 323 323 320 317 316 316 314 313 311 309 308 309 309 309
229 232 237 241 243 247 250 247 243 245 246 245 246 246 245 246 249 252 253 252 253 257 260 264 267 268 266 265 267 270 273 277 278 276 270 263 258 255 252 248 245 243 240 235 232 230 230 232 234 238 243 248 256 267 274 280 290 301 308 315 321 324 326 327 327 327 328 327 326 324 322 322 322 319 317 316 315 313 312 310 308 309 309 309 308
231 231 234 235 236 239 243 244 242 243 246 248 251 253 251 249 250 254 255 253 252 254 258 265 269 270 266 262 262 268 271 274 275 277 277 273 265 258 255 253 251 249 244 238 233 230 229 231 235 240 245 251 259 269 275 283 294 303 310 317 321 322 323 324 325 326 326 326 326 325 323 321 319 318 317 316 313 312 311 309 309 309 309 308 307
231 231 234 237 239 243 249 249 247 245 246 248 251 254 254 253 254 256 256 254 254 256 260 264 268 271 270 264 260 262 267 271 273 274 278 280 274 265 260 257 255 254 249 242 237 232 230 233 237 243 250 256 265 272 279 289 298 305 311 316 319 320 321 322 323 324 325 325 324 325 323 319 316 318 318 315 312 310 309 308 308 309 308 307 306
232 230 233 236 238 242 247 250 251 252 253 254 253 253 253 253 254 254 255 255 257 258 260 263 266 269 271 270 264 260 261 266 270 272 276 280 280 272 264 261 259 257 253 247 241 235 233 236 241 247 253 258 266 274 282 292 299 304 310 314 316 318 319 321 321 322 324 325 325 326 324 318 316 319 319 315 311 308 307 308 308 308 308 306 305
235 236 238 240 241 240 241 244 248 251 253 255 253 249 248 251 253 253 253 255 257 259 260 262 264 266 270 270 264 259 259 261 265 270 273 276 279 276 268 265 262 258 253 248 241 236 236 240 244 248 253 257 264 274 282 291 298 303 307 310 313 316 318 319 319 320 322 324 325 326 324 320 320 321 318 314 312 309 308 309 309 308 307 306 305
235 238 241 243 243 243 243 245 248 250 252 253 251 246 245 248 252 253 253 256 261 264 265 265 265 267 268 265 258 255 257 258 261 266 269 272 275 275 270 265 261 256 251 246 241 238 239 243 246 249 252 257 265 273 282 289 294 299 303 306 309 313 316 317 317 318 320 323 324 324 322 320 320 319 317 315 314 312 311 310 309 307 306 305 304
234 235 237 239 242 246 247 248 250 251 252 251 251 251 250 252 253 254 254 257 262 266 268 267 265 264 262 257 253 252 254 257 258 261 264 267 271 272 269 266 261 254 248 245 243 242 241 243 246 248 252 258 265 273 279 285 291 295 299 301 305 310 314 315 315 317 319 322 323 321 318 318 318 316 315 315 313 311 310 308 307 306 305 303 303
233 234 235 236 239 244 248 251 252 251 251 251 250 250 251 253 254 255 256 258 261 264 267 267 265 264 260 254 251 249 250 254 256 255 256 260 265 268 267 265 260 253 248 247 245 243 242 243 246 248 252 258 264 270 276 282 287 291 294 297 301 306 310 312 313 316 318 320 321 318 316 316 316 314 312 311 310 308 307 305 305 304 303 302 302
235 235 235 236 238 242 246 251 251 249 249 251 251 252 253 254 255 256 258 260 261 263 265 265 266 266 263 257 252 248 247 250 253 252 250 252 258 262 264 262 259 254 251 248 245 242 241 243 245 247 250 254 259 266 271 276 281 285 290 294 298 302 307 309 312 315 317 318 319 317 314 313 313 311 309 308 307 306 305 304 304 303 302 302 303
238 239 238 238 240 242 245 249 251 251 251 252 253 256 258 258 259 260 261 262 262 263 264 265 265 266 266 263 257 248 243 246 252 253 251 249 251 255 258 258 258 256 252 247 243 242 242 243 245 246 248 251 255 259 264 269 275 281 286 290 294 298 303 307 311 314 315 316 317 315 313 311 309 308 307 306 305 304 303 303 302 302 302 303 304
238 241 243 244 245 246 247 249 251 253 255 256 256 257 259 260 262 262 262 262 264 264 265 265 266 265 266 266 264 254 245 243 247 250 251 250 248 249 252 253 254 254 252 246 243 243 243 244 244 244 243 246 250 252 257 265 272 278 283 286 289 294 301 306 311 313 313 315 316 315 311 308 306 305 305 304 303 303 302 302 301 302 303 305 306
239 240 242 245 247 249 250 252 254 255 257 258 259 259 259 260 261 262 263 263 264 264 264 265 266 265 265 265 265 262 256 249 246 245 248 250 249 248 248 250 250 252 252 250 248 248 248 247 247 245 243 243 247 252 257 264 271 276 281 284 287 292 301 307 309 311 312 313 315 314 309 305 303 303 303 302 302 302 301 301 302 304 306 307 306
243 242 242 243 245 247 250 252 254 256 257 258 259 259 258 258 259 260 262 263 263 264 264 264 264 265 265 263 263 264 265 262 257 251 246 246 247 247 247 247 247 249 251 251 250 251 252 253 253 253 251 248 250 256 260 264 271 276 279 284 288 293 300 305 306 308 310 311 312 310 306 302 301 301 301 301 301 300 301 302 305 307 307 307 305
246 247 247 247 248 250 251 252 253 252 252 254 256 256 257 258 259 260 261 263 264 264 265 266 266 265 266 265 265 266 268 269 268 264 255 247 244 245 245 246 246 247 248 248 247 249 252 253 255 256 255 252 251 258 265 265 271 276 279 284 289 292 297 301 302 305 308 309 309 307 302 300 301 300 299 300 300 300 303 306 308 308 307 305 306
249 251 251 251 252 252 253 255 255 253 252 252 253 254 256 257 259 261 263 263 263 264 264 265 266 265 265 266 266 267 267 267 267 266 261 254 247 243 243 244 244 246 247 247 246 247 250 251 251 254 257 255 252 258 269 270 271 276 280 283 286 289 293 297 299 303 306 308 307 304 300 299 299 298 298 299 300 303 307 308 309 308 307 306 306
251 253 253 254 255 255 255 256 257 257 257 257 257 257 258 259 261 264 264 264 264 263 263 263 264 264 265 265 264 264 263 263 262 261 260 257 251 245 243 242 242 242 243 244 245 245 247 249 249 251 257 258 254 259 270 272 271 276 278 279 281 284 288 293 297 301 304 305 303 300 297 297 297 296 298 301 303 306 309 309 309 308 306 306 306
250 252 253 254 256 257 258 258 259 261 262 263 263 263 262 263 264 264 264 264 264 263 263 263 262 262 262 262 262 262 262 262 262 261 260 259 254 248 243 240 240 240 239 239 241 241 242 245 247 250 256 258 255 259 269 270 269 273 275 276 277 280 285 292 297 300 302 302 299 297 295 294 295 297 300 303 306 308 309 309 308 307 306 306 307
250 252 252 253 253 255 256 256 257 259 261 262 264 264 264 265 265 264 265 266 267 267 267 266 265 264 263 263 264 265 265 263 261 259 258 257 255 251 246 240 240 243 243 241 241 241 241 241 243 248 255 257 256 259 266 267 267 271 274 274 276 280 286 292 296 298 299 298 296 293 293 294 295 298 301 305 307 309 309 308 306 305 306 308 309
Height
5892 5892 5893 5894 5895 5896 5897 5898 5900 5901 5902 5904 5905 5906 5906 5907 5909 5910 5911 5912 5913 5914 5915 5915 5916 5916 5917 5918 5918 5919 5920 5921 5921 5922 5923 5923 5923 5924 5924 5925 5925 5926 5926 5926 5926 5926 5926 5925 5924 5924 5923 5922 5921 5921 5920 5919 5919 5918 5918 5918 5918 5917 5917 5917 5916 5916 5916 5916 5916 5916 5916 5916 5915 5915 5915 5914 5914 5913 5913 5913 5912 5912 5912 5912 5911
5892 5893 5894 5895 5896 5897 5898 5898 5900 5901 5902 5904 5905 5905 5906 5907 5908 5909 5911 5912 5913 5914 5915 5915 5916 5916 5917 5918 5919 5919 5920 5921 5922 5922 5923 5923 5923 5924 5924 5925 5925 5926 5926 5926 5926 5925 5925 5924 5923 5922 5922 5921 5920 5920 5919 5919 5918 5917 5917 5917 5917 5917 5916 5916 5916 5916 5916 5916 5916 5915 5915 5915 5914 5914 5914 5913 5913 5912 5912 5912 5911 5911 5911 5910 5910
5892 5893 5894 5895 5896 5897 5898 5898 5899 5900 5901 5902 5903 5904 5906 5907 5908 5909 5910 5911 5913 5914 5914 5915 5916 5916 5917 5918 5919 5919 5920 5920 5921 5922 5922 5923 5923 5924 5924 5924 5925 5925 5925 5925 5925 5924 5923 5922 5922 5921 5921 5920 5920 5919 5919 5918 5917 5917 5917 5917 5917 5917 5916 5916 5915 5915 5915 5915 5915 5915 5914 5914 5914 5913 5913 5912 5912 5911 5911 5910 5910 5909 5909 5909 5909
5892 5892 5893 5895 5895 5896 5898 5898 5899 5899 5900 5902 5903 5904 5905 5906 5908 5909 5910 5911 5912 5913 5914 5915 5915 5916 5917 5918 5918 5919 5920 5920 5921 5922 5922 5923 5923 5923 5924 5924 5924 5924 5924 5924 5924 5923 5922 5922 5921 5921 5920 5920 5920 5919 5919 5918 5918 5917 5917 5917 5917 5916 5916 5916 5915 5915 5915 5914 5914 5914 5914 5913 5913 5913 5912 5911 5911 5910 5910 5909 5908 5908 5907 5907 5907
5892 5892 5893 5894 5895 5896 5897 5898 5898 5899 5900 5901 5903 5904 5905 5906 5907 5908 5909 5910 5912 5913 5913 5914 5915 5915 5916 5917 5918 5919 5919 5920 5921 5922 5922 5922 5923 5923 5923 5923 5924 5924 5923 5923 5923 5922 5922 5921 5921 5921 5920 5920 5919 5919 5919 5918 5917 5917 5917 5917 5916 5916 5916 5915 5915 5914 5914 5914 5913 5913 5913 5912 5912 5912 5912 5911 5910 5909 5908 5908 5907 5907 5906 5905 5905
5892 5892 5892 5894 5895 5896 5897 5898 5899 5899 5900 5901 5902 5903 5904 5905 5907 5908 5909 5910 5911 5912 5913 5914 5914 5915 5916 5916 5917 5918 5919 5919 5920 5921 5922 5922 5922 5922 5923 5923 5923 5923 5923 5922 5922 5922 5921 5921 5921 5920 5920 5919 5919 5919 5918 5918 5917 5917 5917 5916 5916 5915 5915 5914 5914 5913 5913 5912 5912 5912 5911 5911 5910 5910 5911 5910 5910 5908 5907 5906 5906 5905 5905 5904 5903
5892 5892 5892 5893 5894 5895 5896 5897 5898 5899 5900 5900 5901 5902 5904 5905 5906 5908 5909 5910 5910 5911 5912 5913 5914 5915 5915 5916 5917 5917 5918 5919 5919 5920 5920 5921 5921 5922 5922 5922 5922 5922 5922 5921 5921 5921 5921 5920 5920 5920 5920 5919 5919 5918 5918 5917 5917 5916 5916 5916 5915 5915 5914 5913 5913 5912 5911 5911 5910 5910 5910 5909 5909 5909 5909 5909 5909 5908 5907 5905 5904 5904 5903 5902 5902
5892 5893 5893 5893 5894 5895 5896 5897 5897 5898 5899 5900 5901 5902 5903 5904 5905 5906 5908 5909 5910 5910 5911 5912 5913 5914 5915 5916 5916 5917 5918 5918 5919 5919 5919 5920 5920 5921 5921 5921 5921 5921 5921 5920 5920 5920 5920 5920 5920 5919 5919 5918 5918 5918 5917 5917 5916 5916 5915 5915 5914 5914 5913 5912 5911 5911 5910 5909 5909 5909 5908 5908 5907 5907 5907 5907 5907 5907 5906 5905 5903 5902 5902 5901 5900
5892 5893 5893 5894 5894 5894 5895 5896 5896 5897 5898 5899 5900 5901 5902 5903 5904 5905 5906 5907 5909 5909 5910 5911 5912 5913 5914 5915 5916 5916 5917 5917 5918 5918 5918 5919 5919 5920 5920 5920 5920 5920 5919 5919 5919 5919 5919 5919 5919 5918 5918 5918 5917 5917 5917 5916 5916 5915 5915 5914 5914 5913 5913 5912 5910 5910 5909 5908 5907 5907 5906 5906 5906 5906 5905 5905 5904 5904 5904 5903 5902 5901 5900 5898 5897
5891 5892 5893 5894 5894 5894 5894 5895 5895 5896 5897 5898 5899 5900 5901 5902 5903 5904 5905 5906 5907 5909 5909 5910 5910 5911 5913 5913 5914 5915 5916 5917 5917 5917 5917 5918 5918 5918 5919 5919 5919 5918 5918 5918 5918 5918 5918 5919 5918 5918 5917 5917 5916 5916 5916 5916 5915 5915 5914 5913 5913 5912 5912 5911 5910 5909 5907 5906 5905 5905 5905 5904 5904 5904 5904 5903 5903 5902 5902 5901 5900 5899 5898 5897 5895
5890 5891 5892 5893 5893 5894 5895 5895 5895 5895 5895 5896 5898 5899 5900 5901 5902 5903 5903 5905 5906 5907 5908 5909 5910 5910 5911 5912 5913 5914 5915 5916 5916 5916 5916 5916 5917 5917 5917 5917 5917 5917 5917 5917 5917 5917 5918 5917 5917 5917 5916 5915 5915 5915 5915 5915 5914 5914 5913 5912 5912 5911 5911 5910 5909 5908 5907 5905 5904 5903 5903 5903 5902 5902 5902 5902 5901 5900 5900 5899 5898 5897 5896 5895 5894
5889 5889 5890 5892 5892 5893 5894 5895 5895 5895 5895 5896 5897 5898 5899 5900 5901 5901 5902 5903 5905 5906 5907 5908 5909 5910 5910 5911 5912 5912 5913 5914 5914 5915 5915 5915 5915 5916 5916 5916 5916 5916 5916 5916 5916 5916 5916 5916 5916 5915 5915 5914 5914 5914 5914 5914 5914 5913 5912 5912 5911 5910 5910 5909 5908 5908 5906 5905 5904 5903 5902 5901 5900 5900 5900 5900 5899 5898 5898 5897 5896 5895 5894 5892 5892
5887 5888 5888 5890 5891 5892 5893 5893 5894 5894 5895 5895 5895 5896 5897 5898 5899 5900 5901 5902 5903 5904 5905 5906 5908 5909 5909 5909 5910 5911 5912 5912 5913 5913 5913 5913 5914 5914 5914 5914 5914 5914 5915 5915 5915 5915 5915 5915 5914 5914 5914 5913 5913 5913 5913 5913 5913 5912 5912 5911 5910 5910 5909 5908 5908 5907 5906 5905 5904 5902 5901 5900 5899 5898 5897 5897 5896 5896 5895 5894 5893 5893 5892 5891 5890
5886 5886 5887 5887 5889 5891 5892 5892 5892 5893 5893 5893 5894 5895 5896 5897 5898 5899 5900 5900 5901 5902 5903 5904 5906 5907 5908 5908 5908 5909 5910 5911 5911 5911 5911 5912 5912 5912 5912 5912 5913 5913 5914 5914 5914 5914 5914 5913 5913 5913 5912 5912 5912 5912 5912 5912 5912 5911 5910 5910 5909 5909 5908 5907 5907 5906 5905 5904 5903 5902 5900 5899 5897 5896 5895 5894 5894 5893 5892 5891 5891 5890 5890 5889 5888
5884 5885 5885 5885 5886 5888 5889 5890 5890 5891 5891 5892 5892 5893 5894 5895 5896 5897 5898 5899 5900 5900 5901 5902 5903 5904 5905 5906 5907 5907 5908 5909 5909 5910 5910 5910 5910 5910 5910 5910 5911 5912 5913 5913 5913 5913 5912 5912 5912 5912 5911 5912 5912 5911 5911 5911 5910 5910 5909 5908 5908 5907 5907 5906 5905 5904 5903 5902 5901 5900 5899 5897 5896 5895 5894 5892 5892 5891 5890 5889 5888 5887 5887 5887 5886
5881 5882 5883 5883 5884 5885 5887 5888 5889 5889 5889 5890 5891 5892 5893 5894 5895 5896 5897 5898 5898 5899 5899 5900 5901 5902 5903 5904 5905 5905 5906 5906 5907 5908 5908 5908 5908 5908 5908 5908 5910 5911 5911 5912 5912 5912 5911 5911 5911 5910 5910 5911 5911 5910 5910 5909 5909 5908 5908 5907 5907 5906 5906 5905 5904 5903 5902 5900 5899 5898 5897 5896 5894 5893 5892 5891 5890 5889 5888 5887 5886 5885 5884 5884 5884
5878 5879 5880 5881 5881 5882 5884 5886 5886 5887 5887 5888 5889 5890 5891 5891 5892 5894 5895 5896 5897 5897 5897 5898 5898 5899 5901 5902 5903 5903 5904 5905 5905 5906 5906 5906 5906 5906 5906 5906 5908 5909 5910 5911 5911 5910 5910 5909 5909 5909 5909 5910 5909 5909 5909 5908 5908 5907 5907 5907 5906 5906 5905 5904 5903 5901 5900 5899 5898 5896 5895 5894 5893 5892 5891 5889 5888 5887 5886 5885 5884 5882 5881 5881 5881
5875 5876 5877 5878 5879 5879 5881 5883 5884 5885 5885 5887 5888 5888 5888 5889 5890 5892 5892 5893 5894 5895 5895 5895 5896 5897 5898 5899 5900 5901 5902 5902 5903 5903 5904 5904 5904 5904 5904 5905 5906 5907 5908 5909 5909 5909 5908 5908 5908 5908 5908 5908 5908 5908 5908 5907 5907 5907 5906 5906 5905 5904 5904 5903 5901 5900 5899 5898 5897 5895 5894 5892 5891 5890 5889 5888 5886 5885 5884 5883 5882 5881 5879 5878 5877
5871 5873 5874 5875 5876 5877 5879 5881 5881 5882 5883 5884 5885 5885 5886 5887 5888 5890 5890 5891 5891 5892 5893 5893 5893 5894 5895 5896 5897 5898 5899 5900 5900 5901 5902 5902 5902 5902 5902 5903 5904 5906 5907 5907 5908 5907 5907 5906 5906 5907 5907 5907 5907 5907 5907 5907 5907 5906 5906 5905 5904 5903 5902 5901 5900 5899 5898 5897 5895 5894 5893 5891 5890 5888 5887 5886 5885 5883 5882 5881 5879 5878 5877 5876 5875
5869 5870 5871 5872 5873 5875 5876 5878 5879 5880 5881 5882 5883 5883 5884 5885 5886 5887 5888 5888 5889 5890 5890 5890 5891 5891 5891 5892 5894 5895 5896 5897 5898 5899 5900 5901 5900 5900 5901 5901 5902 5904 5905 5905 5905 5905 5905 5905 5905 5905 5905 5906 5906 5906 5906 5906 5906 5906 5905 5904 5903 5902 5901 5900 5899 5898 5897 5895 5894 5892 5891 5890 5888 5886 5885 5884 5883 5881 5880 5879 5877 5876 5875 5873 5872
5866 5867 5868 5869 5870 5872 5874 5875 5876 5876 5877 5878 5880 5881 5882 5883 5884 5885 5886 5886 5887 5887 5887 5887 5888 5888 5889 5889 5891 5892 5893 5894 5895 5896 5898 5898 5898 5898 5899 5899 5900 5902 5903 5903 5903 5903 5903 5903 5903 5904 5904 5905 5905 5905 5905 5905 5905 5905 5904 5903 5902 5901 5899 5898 5897 5895 5894 5893 5891 5889 5888 5887 5886 5884 5883 5882 5880 5879 5878 5877 5875 5874 5873 5871 5870
5864 5865 5866 5866 5867 5869 5871 5872 5873 5873 5874 5876 5877 5878 5880 5881 5882 5882 5883 5884 5885 5885 5885 5885 5885 5885 5886 5887 5887 5889 5890 5891 5892 5894 5895 5895 5896 5897 5897 5897 5898 5900 5900 5901 5901 5901 5901 5901 5902 5902 5903 5903 5904 5904 5904 5904 5904 5904 5903 5902 5901 5899 5898 5896 5894 5893 5891 5890 5888 5886 5885 5884 5883 5881 5880 5879 5878 5877 5875 5874 5872 5871 5870 5868 5867
5861 5862 5864 5864 5865 5866 5867 5869 5870 5871 5872 5874 5875 5876 5878 5879 5880 5880 5881 5882 5882 5882 5883 5883 5883 5883 5884 5884 5885 5886 5887 5888 5889 5891 5892 5893 5893 5894 5894 5895 5896 5897 5898 5899 5899 5899 5900 5900 5900 5900 5901 5902 5903 5903 5903 5903 5903 5902 5901 5900 5899 5897 5895 5894 5892 5890 5889 5887 5886 5884 5882 5881 5880 5878 5877 5876 5875 5873 5872 5870 5869 5867 5866 5865 5864
5858 5860 5862 5862 5862 5863 5864 5865 5866 5868 5870 5871 5873 5874 5876 5877 5877 5878 5879 5880 5880 5880 5881 5881 5881 5881 5881 5882 5883 5883 5884 5885 5886 5888 5889 5890 5890 5891 5892 5893 5894 5895 5896 5896 5897 5898 5898 5898 5898 5899 5900 5900 5901 5901 5901 5901 5901 5900 5899 5898 5896 5895 5893 5892 5890 5888 5887 5885 5883 5881 5880 5878 5877 5876 5874 5873 5871 5870 5869 5867 5865 5864 5863 5861 5860
5856 5857 5859 5859 5860 5860 5861 5863 5864 5866 5868 5869 5871 5872 5873 5874 5875 5876 5877 5877 5878 5879 5879 5879 5880 5880 5879 5880 5880 5881 5882 5882 5883 5885 5886 5886 5887 5888 5890 5891 5892 5893 5894 5894 5895 5896 5896 5897 5897 5897 5898 5898 5899 5899 5899 5899 5899 5898 5897 5896 5895 5893 5892 5890 5888 5886 5885 5883 5881 5879 5878 5876 5875 5874 5872 5871 5869 5867 5866 5864 5862 5861 5860 5858 5857
5853 5854 5856 5857 5857 5858 5859 5861 5862 5864 5865 5867 5868 5870 5871 5872 5873 5873 5874 5875 5876 5876 5877 5877 5878 5878 5878 5878 5878 5879 5880 5880 5881 5882 5883 5883 5884 5886 5887 5888 5890 5891 5892 5892 5893 5894 5894 5895 5895 5895 5896 5896 5897 5897 5897 5897 5896 5896 5895 5894 5893 5892 5890 5888 5886 5884 5883 5881 5879 5877 5875 5874 5873 5871 5870 5868 5867 5865 5863 5861 5860 5858 5857 5855 5853
5849 5851 5853 5854 5855 5856 5858 5859 5860 5862 5863 5865 5866 5867 5868 5869 5870 5871 5871 5872 5873 5874 5875 5876 5876 5876 5876 5877 5877 5878 5878 5879 5879 5880 5880 5881 5882 5883 5885 5886 5887 5888 5890 5890 5891 5892 5892 5892 5892 5893 5894 5894 5895 5895 5895 5895 5894 5894 5894 5893 5891 5889 5888 5886 5884 5882 5881 5879 5877 5875 5873 5872 5870 5869 5867 5865 5864 5863 5861 5859 5857 5856 5854 5852 5850
5845 5847 5849 5851 5853 5854 5856 5857 5858 5859 5861 5862 5864 5865 5866 5867 5868 5868 5869 5870 5871 5872 5873 5874 5874 5875 5875 5876 5876 5876 5877 5877 5878 5878 5879 5879 5880 5881 5882 5883 5884 5886 5888 5889 5889 5890 5889 5890 5890 5891 5892 5892 5893 5893 5893 5893 5893 5893 5892 5891 5889 5887 5886 5884 5882 5880 5878 5876 5874 5872 5871 5869 5868 5866 5864 5862 5861 5860 5858 5857 5855 5853 5851 5849 5847
5841 5843 5845 5847 5849 5852 5853 5854 5855 5856 5858 5860 5861 5862 5863 5864 5865 5866 5866 5868 5869 5870 5870 5871 5872 5873 5874 5874 5874 5875 5876 5876 5876 5877 5878 5878 5879 5879 5880 5880 5881 5883 5886 5887 5887 5887 5887 5888 5889 5889 5890 5891 5891 5891 5891 5891 5891 5891 5890 5888 5887 5886 5884 5882 5879 5877 5875 5873 5871 5870 5868 5867 5865 5863 5861 5859 5858 5856 5855 5853 5852 5850 5848 5846 5844
5838 5839 5841 5843 5846 5849 5851 5852 5852 5853 5855 5857 5858 5860 5861 5862 5863 5863 5865 5866 5867 5868 5868 5869 5871 5872 5873 5873 5873 5873 5874 5874 5875 5876 5876 5877 5877 5877 5877 5877 5879 5881 5883 5884 5884 5885 5886 5887 5887 5888 5888 5889 5889 5889 5889 5889 5889 5888 5887 5886 5885 5884 5882 5879 5877 5875 5873 5871 5869 5868 5866 5864 5862 5860 5858 5856 5854 5853 5852 5850 5849 5847 5845 5843 5841
5835 5837 5839 5841 5842 5845 5847 5848 5849 5850 5852 5854 5855 5857 5858 5859 5861 5862 5863 5864 5864 5865 5867 5867 5869 5871 5871 5871 5871 5872 5872 5872 5873 5874 5874 5875 5875 5875 5875 5875 5876 5878 5880 5881 5882 5884 5885 5885 5885 5886 5886 5887 5887 5886 5886 5886 5886 5886 5885 5884 5883 5881 5879 5877 5874 5873 5871 5869 5867 5865 5863 5861 5859 5857 5855 5853 5851 5850 5849 5847 5846 5844 5842 5840 5838
5832 5834 5836 5837 5839 5841 5843 5845 5846 5847 5849 5850 5852 5854 5855 5856 5858 5859 5861 5861 5862 5863 5865 5866 5867 5868 5869 5870 5870 5870 5870 5871 5871 5872 5872 5872 5872 5872 5872 5873 5873 5875 5878 5879 5881 5882 5883 5882 5883 5883 5884 5884 5884 5883 5883 5883 5883 5883 5882 5881 5880 5878 5876 5874 5872 5870 5868 5866 5864 5861 5859 5858 5856 5854 5851 5850 5848 5847 5846 5844 5842 5840 5838 5836 5833
5829 5831 5832 5834 5836 5837 5839 5842 5844 5845 5846 5848 5849 5850 5852 5854 5856 5857 5858 5858 5859 5861 5862 5864 5865 5865 5866 5868 5868 5868 5868 5869 5869 5870 5870 5869 5869 5870 5870 5871 5871 5873 5875 5877 5879 5879 5880 5880 5880 5881 5881 5881 5881 5881 5881 5881 5880 5880 5879 5878 5877 5875 5873 5871 5869 5867 5865 5862 5860 5858 5856 5854 5852 5850 5849 5847 5846 5845 5843 5841 5838 5836 5834 5831 5829
5825 5827 5829 5831 5833 5835 5836 5839 5841 5842 5844 5845 5846 5847 5849 5851 5852 5853 5854 5855 5857 5859 5860 5861 5862 5863 5864 5865 5865 5866 5866 5867 5867 5867 5866 5866 5867 5867 5868 5868 5869 5871 5872 5874 5876 5877 5877 5877 5878 5878 5878 5878 5878 5878 5878 5878 5877 5877 5876 5874 5873 5871 5870 5868 5866 5864 5862 5860 5858 5856 5853 5851 5849 5847 5846 5844 5843 5841 5839 5837 5834 5832 5829 5827 5824
5821 5824 5825 5827 5829 5830 5832 5835 5837 5838 5840 5841 5843 5844 5846 5847 5849 5850 5851 5852 5854 5856 5857 5859 5860 5860 5861 5862 5863 5863 5864 5864 5864 5864 5864 5864 5865 5865 5866 5866 5867 5869 5870 5872 5873 5874 5874 5874 5875 5875 5875 5875 5875 5875 5875 5874 5874 5873 5872 5871 5869 5868 5867 5865 5863 5861 5859 5857 5855 5854 5851 5848 5845 5844 5843 5841 5840 5837 5835 5832 5830 5828 5825 5822 5819
5818 5820 5821 5823 5824 5826 5828 5831 5833 5835 5836 5837 5839 5841 5842 5844 5845 5846 5847 5849 5850 5852 5854 5855 5856 5857 5858 5859 5860 5860 5861 5861 5861 5861 5861 5862 5862 5863 5863 5864 5865 5866 5867 5868 5869 5870 5871 5871 5871 5872 5872 5872 5872 5872 5871 5871 5870 5869 5868 5867 5866 5865 5863 5861 5859 5857 5855 5854 5852 5850 5848 5844 5842 5840 5839 5838 5836 5834 5831 5829 5826 5823 5821 5818 5815
5813 5815 5817 5818 5820 5822 5824 5826 5828 5830 5831 5833 5835 5836 5838 5840 5841 5842 5843 5845 5846 5848 5849 5851 5853 5854 5855 5855 5856 5857 5857 5857 5857 5857 5858 5859 5859 5860 5860 5861 5862 5863 5864 5864 5865 5866 5867 5868 5868 5868 5869 5869 5869 5868 5868 5867 5867 5866 5865 5864 5863 5861 5859 5858 5856 5854 5852 5850 5848 5846 5844 5841 5838 5836 5835 5834 5833 5830 5827 5825 5822 5819 5816 5813 5810
5809 5811 5813 5814 5816 5818 5820 5822 5824 5825 5827 5829 5831 5832 5833 5835 5836 5838 5839 5840 5842 5843 5845 5847 5849 5850 5851 5851 5851 5852 5852 5853 5854 5854 5855 5856 5856 5857 5857 5858 5859 5860 5860 5861 5862 5862 5863 5863 5864 5865 5866 5866 5866 5865 5864 5864 5863 5862 5861 5860 5859 5858 5856 5854 5852 5850 5848 5846 5844 5842 5839 5837 5835 5833 5831 5830 5828 5826 5823 5820 5818 5815 5812 5808 5806
5805 5807 5809 5811 5812 5814 5816 5817 5819 5821 5823 5825 5827 5828 5829 5831 5832 5833 5835 5836 5838 5839 5840 5842 5844 5845 5845 5846 5846 5847 5847 5848 5850 5851 5852 5852 5853 5853 5854 5854 5855 5856 5857 5857 5857 5858 5859 5860 5861 5862 5862 5862 5862 5861 5861 5860 5859 5858 5857 5857 5855 5854 5852 5850 5848 5847 5845 5842 5840 5838 5835 5833 5831 5829 5827 5825 5823 5821 5818 5816 5813 5810 5807 5804 5801
5801 5804 5805 5807 5809 5810 5812 5814 5815 5818 5820 5821 5822 5823 5824 5826 5827 5828 5830 5832 5834 5836 5836 5838 5839 5839 5840 5841 5842 5843 5843 5843 5845 5847 5848 5848 5849 5849 5850 5850 5851 5852 5853 5853 5853 5854 5855 5856 5857 5858 5858 5858 5858 5857 5857 5856 5855 5855 5854 5853 5852 5850 5849 5847 5845 5843 5840 5838 5836 5834 5832 5829 5827 5825 5823 5821 5819 5816 5814 5811 5809 5806 5803 5799 5796
5796 5799 5801 5803 5805 5807 5808 5809 5812 5814 5815 5816 5817 5818 5819 5821 5822 5823 5825 5827 5830 5831 5832 5832 5833 5833 5834 5836 5837 5838 5839 5839 5840 5841 5843 5843 5844 5845 5846 5846 5847 5848 5848 5849 5850 5851 5851 5852 5853 5853 5854 5854 5854 5853 5853 5852 5851 5851 5850 5849 5847 5846 5844 5843 5841 5838 5836 5834 5832 5830 5827 5825 5823 5821 5818 5816 5814 5812 5810 5807 5804 5801 5798 5795 5792
5791 5793 5796 5798 5801 5802 5803 5804 5806 5808 5810 5811 5812 5813 5815 5816 5817 5818 5820 5822 5824 5825 5826 5827 5827 5827 5828 5830 5832 5833 5834 5835 5834 5835 5837 5839 5840 5841 5841 5842 5842 5843 5844 5845 5845 5846 5847 5848 5848 5848 5849 5849 5849 5848 5848 5847 5847 5846 5845 5844 5843 5841 5840 5838 5836 5834 5831 5829 5827 5826 5823 5821 5819 5816 5814 5811 5809 5807 5805 5802 5799 5797 5793 5790 5787
5785 5787 5790 5793 5795 5797 5798 5799 5801 5803 5804 5806 5807 5808 5810 5810 5811 5813 5815 5816 5817 5819 5821 5821 5821 5821 5822 5824 5826 5827 5828 5829 5830 5830 5831 5833 5834 5835 5836 5837 5837 5838 5838 5839 5840 5840 5841 5842 5842 5843 5843 5843 5843 5843 5842 5842 5841 5840 5840 5839 5838 5836 5835 5833 5831 5829 5827 5825 5823 5821 5819 5817 5814 5812 5809 5807 5805 5802 5800 5797 5795 5792 5789 5785 5782
5781 5782 5784 5787 5789 5791 5793 5794 5795 5797 5798 5800 5801 5802 5803 5804 5806 5808 5809 5810 5811 5813 5814 5815 5816 5817 5817 5818 5820 5821 5822 5823 5824 5825 5825 5827 5828 5829 5830 5831 5831 5831 5832 5833 5833 5834 5834 5835 5836 5836 5836 5837 5837 5836 5836 5835 5835 5834 5834 5833 5832 5831 5830 5828 5826 5824 5822 5820 5819 5817 5815 5812 5810 5807 5805 5802 5800 5798 5795 5793 5790 5787 5784 5780 5777
5777 5778 5780 5782 5783 5785 5787 5788 5790 5791 5792 5793 5795 5796 5797 5799 5800 5802 5803 5804 5805 5806 5807 5808 5809 5810 5811 5813 5813 5813 5815 5817 5818 5819 5820 5821 5821 5822 5822 5824 5825 5825 5826 5826 5827 5827 5828 5829 5830 5829 5830 5831 5831 5830 5830 5829 5828 5828 5828 5828 5827 5826 5825 5823 5821 5819 5817 5816 5814 5812 5810 5808 5805 5803 5800 5798 5795 5793 5791 5788 5785 5782 5778 5775 5772
5772 5774 5775 5777 5779 5780 5782 5783 5785 5786 5787 5788 5789 5790 5791 5793 5794 5795 5796 5797 5798 5799 5799 5800 5801 5802 5804 5805 5805 5806 5807 5810 5813 5815 5816 5816 5815 5815 5815 5817 5818 5819 5820 5821 5821 5821 5821 5823 5825 5825 5825 5826 5826 5824 5824 5823 5823 5823 5823 5822 5822 5821 5819 5818 5816 5814 5813 5811 5809 5807 5805 5803 5801 5798 5795 5793 5791 5788 5786 5783 5780 5776 5773 5770 5767
5766 5768 5770 5771 5773 5775 5776 5778 5779 5781 5782 5782 5783 5784 5785 5786 5787 5789 5790 5791 5791 5792 5792 5793 5794 5795 5795 5796 5797 5799 5800 5802 5805 5807 5809 5809 5809 5809 5809 5809 5810 5812 5813 5814 5813 5813 5813 5816 5819 5819 5818 5818 5819 5819 5818 5817 5817 5817 5817 5817 5816 5815 5814 5813 5811 5809 5808 5806 5804 5802 5800 5798 5796 5793 5791 5788 5786 5783 5780 5777 5774 5771 5768 5765 5762
5760 5761 5763 5765 5767 5768 5770 5771 5773 5774 5775 5776 5777 5779 5779 5780 5781 5782 5783 5784 5784 5785 5785 5785 5785 5786 5787 5788 5789 5791 5792 5794 5795 5796 5798 5800 5801 5802 5803 5803 5803 5804 5805 5804 5803 5803 5804 5807 5809 5809 5809 5811 5813 5814 5813 5812 5811 5811 5811 5811 5810 5809 5808 5807 5806 5804 5803 5801 5799 5797 5795 5793 5791 5788 5786 5783 5781 5778 5775 5772 5769 5767 5764 5761 5758
5753 5755 5756 5758 5760 5761 5763 5765 5766 5767 5769 5770 5772 5773 5774 5774 5775 5775 5776 5776 5777 5777 5777 5777 5777 5778 5779 5780 5781 5781 5782 5783 5783 5784 5785 5789 5792 5794 5796 5797 5796 5795 5794 5793 5792 5791 5793 5796 5799 5799 5801 5805 5807 5808 5807 5806 5805 5805 5805 5805 5804 5804 5803 5802 5800 5799 5797 5795 5794 5792 5790 5788 5786 5783 5781 5778 5775 5772 5770 5767 5765 5762 5759 5757 5754
5747 5749 5750 5752 5754 5755 5757 5758 5759 5760 5762 5763 5764 5766 5767 5768 5768 5768 5769 5769 5769 5769 5770 5770 5771 5771 5771 5771 5771 5771 5771 5772 5773 5774 5775 5778 5781 5784 5787 5787 5785 5782 5781 5779 5777 5777 5780 5784 5787 5791 5795 5799 5801 5801 5800 5800 5799 5799 5799 5798 5797 5797 5797 5796 5795 5793 5792 5790 5789 5787 5785 5783 5781 5778 5776 5773 5770 5767 5765 5762 5760 5758 5755 5753 5750
5742 5743 5744 5746 5748 5749 5751 5752 5753 5754 5756 5757 5757 5758 5759 5760 5760 5761 5761 5761 5761 5761 5761 5761 5761 5761 5761 5761 5760 5760 5760 5761 5762 5763 5764 5765 5767 5770 5774 5777 5776 5775 5774 5773 5772 5772 5774 5775 5776 5782 5789 5793 5794 5795 5794 5793 5793 5793 5792 5792 5791 5791 5790 5790 5789 5787 5786 5785 5783 5782 5780 5778 5776 5773 5770 5768 5765 5763 5760 5758 5756 5754 5752 5749 5746